User: anonymous   Login
Location: Caltech
(34.1382°N, 118.1253°W)
Time: 11:44:26
(UTC-08:00)
Language:

Iridium 75 - Orbit

View from above orbital plane
View from above orbital plane
View from above satellite
View from above satellite

Ground track
Ground track

The orbit data is extracted from the following two-line orbital elements,

1 25346U 98032E   17055.53615575  .00000037  00000-0  60270-5 0  9997
2 25346  86.3929 271.1977 0002072  87.2766 331.7631 14.34218027983523
Epoch (UTC): 24 February 2017 12:52:03
Eccentricity: 0.0002072
inclination: 86.3929°
perigee height: 776 km
apogee height: 779 km
right ascension of ascending node: 271.1977°
argument of perigee: 87.2766°
revolutions per day: 14.34218027
mean anomaly at epoch: 331.7631°
orbit number at epoch: 98352

The dashed part of the orbit path shows where the satellite is in the earth's shadow,  

DLR